Flag for Brazil Weather past 2 weeks in Uberaba, Minas Gerais, Brazil

Now
66 °F

Fog.


Feels Like: 66 °F
Forecast: 69 / 84 °F
Wind: 5 mph from Southeast

Location: Leite Lopes / Ribeir

Current Time: Mar 28, 2015 at 6:48:39 AM

Latest Report: Mar 28, 2015 at 6:00 AM


Visibility: 0 mi

Pressure: 30.09 "Hg

Humidity: 94%

Dew point: 64 °F

Location of UberabaLocation

Historic Weather in Uberaba — Graph

°F

Uberaba temperature yesterday

Maximum temperature yesterday: 88 °F (at 1:00 PM)
Minimum temperature yesterday: 70 °F (at 5:00 AM)
Average temperature yesterday: 74 °F

Past Weeks' High & Low Weather Summary

 TemperatureHumidityPressure
High90 °F (Mar 24, 2:00 PM)100% (Mar 22, 7:00 PM)30.12 "Hg (Mar 22, 7:00 PM)
Low36 °F (Mar 22, 7:00 PM)33% (Mar 24, 2:00 PM)29.83 "Hg (Mar 21, 3:00 PM)
Average73 °F79%29.99 "Hg
* Reported Mar 13 6:00 AM — Mar 28 6:00 AM, Uberaba, Weather by CustomWeather, © 2015

Note: Actual official high and low records may vary slightly from our data, if they occured in-between our weather recording intervals... More about our weather records

Advertising

Uberaba weather history for previous 24 hours

 ConditionsComfort  
Time TempWeatherWind HumidityBarometerVisibility
6:00 AM
Sat, Mar 28
66 °FFog.5 mph94%30.09 "Hg1 mi
5:00 AM66 °FFog.5 mph94%30.07 "Hg1 mi
4:00 AM66 °FFog.3 mph94%30.07 "Hg1 mi
3:00 AM66 °FFog.5 mph94%30.07 "Hg1 mi
2:00 AM68 °FClear.3 mph94%30.07 "Hg10 mi
1:00 AM68 °FClear.5 mph94%30.07 "Hg10 mi
12:00 AM70 °FClear.3 mph88%30.07 "Hg10 mi
11:00 PM
Fri, Mar 27
70 °FPassing clouds.5 mph94%30.09 "Hg6 mi
10:00 PM70 °FPassing clouds.5 mph94%30.09 "HgN/A
9:00 PM72 °FLight rain. Low clouds.3 mph88%30.12 "Hg3 mi
8:00 PM72 °FLight rain. Mostly cloudy.3 mph88%30.09 "Hg3 mi
7:00 PM72 °FLight rain. Mostly cloudy.2 mph88%30.07 "Hg5 mi
6:00 PM72 °FLight rain. Mostly cloudy.2 mph94%30.04 "Hg5 mi
5:00 PM72 °FLight rain. Mostly cloudy.5 mph88%30.04 "HgN/A
4:00 PM70 °FThunderstorms. Partly sunny.10 mph88%30.04 "Hg5 mi
3:00 PM77 °FThunderstorms. Partly sunny.10 mph79%30.01 "Hg6 mi
2:00 PM84 °FPartly sunny.6 mph55%30.01 "HgN/A
1:00 PM88 °FPassing clouds.5 mph55%30.04 "HgN/A
12:00 PM82 °FPassing clouds.5 mph66%30.07 "Hg5 mi
11:00 AM81 °FPartly sunny.9 mph70%30.07 "Hg4 mi
10:00 AM79 °FScattered clouds.7 mph74%30.07 "Hg3 mi
9:00 AM79 °FHaze.6 mph74%30.07 "Hg3 mi
8:00 AM75 °FClear.No wind83%30.04 "Hg4 mi
7:00 AM72 °FClear.2 mph88%30.01 "Hg4 mi
6:00 AM70 °FSunny.5 mph94%30.01 "Hg10 mi
Weather by CustomWeather, © 2015

See weather overviewHow to use our weather pages